Time,TemperatureF,DewpointF,PressureIn,WindDirection,WindDirectionDegrees,WindSpeedMPH,WindSpeedGustMPH,Humidity,HourlyPrecipIn,Conditions,Clouds,dailyrainin,SoftwareType,DateUTC
2013-04-15 00:02:00,78.8,75.5,25.28,SSE,157,1.6,0.0,87,0.00,,,-99.99,Homeseer,2013-04-15 04:02:00,
2013-04-15 00:12:00,78.6,75.3,25.28,North,0,1.1,0.0,87,0.00,,,-99.99,Homeseer,2013-04-15 04:12:00,
2013-04-15 00:22:00,78.6,75.5,25.28,North,0,0.0,1.3,88,0.00,,,-99.99,Homeseer,2013-04-15 04:22:00,
2013-04-15 00:32:00,78.6,75.5,25.28,South,180,0.9,0.0,88,0.00,,,-99.99,Homeseer,2013-04-15 04:32:00,
2013-04-15 00:42:00,78.6,75.5,25.28,North,0,1.3,1.3,88,0.00,,,-99.99,Homeseer,2013-04-15 04:42:00,
2013-04-15 00:52:00,78.4,75.3,25.28,South,180,1.3,0.0,88,0.00,,,-99.99,Homeseer,2013-04-15 04:52:00,
2013-04-15 01:02:00,78.4,75.3,25.28,South,180,2.5,2.5,88,0.00,,,-99.99,Homeseer,2013-04-15 05:02:00,
2013-04-15 01:12:00,78.4,75.3,25.28,WNW,297,0.9,0.9,88,0.00,,,-99.99,Homeseer,2013-04-15 05:12:00,
2013-04-15 01:22:00,78.6,75.3,25.28,SSE,157,0.9,0.9,87,0.00,,,-99.99,Homeseer,2013-04-15 05:22:00,
2013-04-15 01:32:00,78.4,75.3,25.28,West,270,0.0,0.0,88,0.00,,,-99.99,Homeseer,2013-04-15 05:32:00,
2013-04-15 01:42:00,78.4,75.3,25.28,WSW,247,0.0,0.0,88,0.00,,,-99.99,Homeseer,2013-04-15 05:42:00,
2013-04-15 01:52:00,78.3,75.2,25.28,WNW,297,0.0,0.0,88,0.00,,,-99.99,Homeseer,2013-04-15 05:52:00,
2013-04-15 02:02:00,78.3,75.2,25.28,West,270,0.0,0.0,88,0.00,,,-99.99,Homeseer,2013-04-15 06:02:00,
2013-04-15 02:12:00,78.1,75.1,25.28,WNW,297,0.0,0.0,88,0.00,,,-99.99,Homeseer,2013-04-15 06:12:00,
2013-04-15 02:22:00,77.9,74.9,25.28,SW,225,0.0,0.0,88,0.00,,,-99.99,Homeseer,2013-04-15 06:22:00,
2013-04-15 02:32:00,77.9,75.1,25.28,WNW,297,0.0,0.0,89,0.00,,,-99.99,Homeseer,2013-04-15 06:32:00,
2013-04-15 02:42:00,77.7,74.9,25.28,SW,225,0.0,0.0,89,0.00,,,-99.99,Homeseer,2013-04-15 06:42:00,
2013-04-15 02:52:00,77.7,74.9,25.28,North,0,0.0,0.0,89,0.00,,,-99.99,Homeseer,2013-04-15 06:52:00,
2013-04-15 03:42:00,77.2,74.7,25.28,WNW,297,0.0,0.0,90,0.00,,,-99.99,Homeseer,2013-04-15 07:42:00,
2013-04-15 03:52:00,77.2,75.0,25.28,WNW,297,0.0,0.0,91,0.00,,,-99.99,Homeseer,2013-04-15 07:52:00,
2013-04-15 04:02:00,77.2,75.0,25.28,West,270,0.0,0.0,91,0.00,,,-99.99,Homeseer,2013-04-15 08:02:00,
2013-04-15 04:12:00,77.2,75.0,25.28,WNW,297,0.0,0.0,91,0.00,,,-99.99,Homeseer,2013-04-15 08:12:00,
2013-04-15 04:22:00,77.0,74.8,25.28,North,0,0.0,0.0,91,0.00,,,-99.99,Homeseer,2013-04-15 08:22:00,
2013-04-15 04:32:00,77.2,75.0,25.28,North,0,0.0,0.0,91,0.00,,,-99.99,Homeseer,2013-04-15 08:32:00,
2013-04-15 04:42:00,77.0,74.8,25.28,North,0,0.0,0.0,91,0.00,,,-99.99,Homeseer,2013-04-15 08:42:00,
2013-04-15 04:52:00,76.6,74.6,25.28,North,0,0.0,0.0,92,0.00,,,-99.99,Homeseer,2013-04-15 08:52:00,
2013-04-15 05:02:00,76.6,74.6,25.28,North,0,0.0,0.0,92,0.00,,,-99.99,Homeseer,2013-04-15 09:02:00,
2013-04-15 05:12:00,76.6,74.9,25.28,South,180,0.0,0.0,93,0.00,,,-99.99,Homeseer,2013-04-15 09:12:00,
2013-04-15 05:22:00,76.8,75.1,25.28,SSE,157,0.0,0.0,93,0.00,,,-99.99,Homeseer,2013-04-15 09:22:00,
2013-04-15 05:32:00,76.8,75.1,25.28,North,0,0.0,0.0,93,0.00,,,-99.99,Homeseer,2013-04-15 09:32:00,
2013-04-15 05:42:00,76.8,75.3,25.28,WSW,247,0.0,2.5,94,0.00,,,-99.99,Homeseer,2013-04-15 09:42:00,
2013-04-15 05:52:00,76.8,75.3,25.28,WSW,247,0.0,0.0,94,0.00,,,-99.99,Homeseer,2013-04-15 09:52:00,
2013-04-15 06:02:00,77.0,75.5,25.28,North,0,0.0,0.9,94,0.00,,,-99.99,Homeseer,2013-04-15 10:02:00,
2013-04-15 06:12:00,76.8,75.6,25.28,SSE,157,0.0,0.0,95,0.00,,,-99.99,Homeseer,2013-04-15 10:12:00,
2013-04-15 06:32:00,76.8,75.6,25.28,North,0,0.0,0.0,95,0.00,,,-99.99,Homeseer,2013-04-15 10:32:00,
2013-04-15 06:42:00,76.8,75.6,25.28,WSW,247,0.0,0.0,95,0.00,,,-99.99,Homeseer,2013-04-15 10:42:00,
2013-04-15 06:52:00,76.6,75.4,25.28,WSW,247,0.0,0.0,95,0.00,,,-99.99,Homeseer,2013-04-15 10:52:00,
2013-04-15 07:12:00,76.8,75.3,25.28,West,270,0.0,0.0,94,0.00,,,-99.99,Homeseer,2013-04-15 11:12:00,
2013-04-15 07:22:00,76.8,75.6,25.28,West,270,0.0,0.0,95,0.00,,,-99.99,Homeseer,2013-04-15 11:22:00,
2013-04-15 07:32:00,77.0,75.5,25.28,North,0,0.0,0.0,94,0.00,,,-99.99,Homeseer,2013-04-15 11:32:00,
2013-04-15 07:42:00,77.2,75.7,25.28,West,270,0.0,0.0,94,0.00,,,-99.99,Homeseer,2013-04-15 11:42:00,
2013-04-15 07:52:00,77.4,75.9,25.28,SSE,157,0.0,0.0,94,0.00,,,-99.99,Homeseer,2013-04-15 11:52:00,
2013-04-15 08:02:00,77.5,76.0,25.28,SSE,157,0.0,0.0,94,0.00,,,-99.99,Homeseer,2013-04-15 12:02:00,
2013-04-15 08:12:00,77.7,76.2,25.28,SSE,157,0.0,0.0,94,0.00,,,-99.99,Homeseer,2013-04-15 12:12:00,
2013-04-15 08:42:00,77.4,75.7,25.28,North,0,4.9,4.9,93,0.00,,,-99.99,Homeseer,2013-04-15 12:42:00,
2013-04-15 08:52:00,76.3,74.1,25.28,North,0,4.5,6.3,91,0.00,,,-99.99,Homeseer,2013-04-15 12:52:00,
2013-04-15 09:12:00,75.9,73.2,25.28,North,0,1.1,2.2,89,0.00,,,-99.99,Homeseer,2013-04-15 13:12:00,
2013-04-15 09:22:00,76.3,73.3,25.28,ENE,67,1.3,0.0,88,0.00,,,-99.99,Homeseer,2013-04-15 13:22:00,
2013-04-15 09:32:00,77.5,73.4,25.28,North,0,0.0,0.0,84,0.00,,,-99.99,Homeseer,2013-04-15 13:32:00,
2013-04-15 09:42:00,77.7,74.1,25.28,North,0,0.0,0.0,86,0.00,,,-99.99,Homeseer,2013-04-15 13:42:00,
2013-04-15 09:52:00,79.2,75.3,25.28,SE,135,0.0,0.0,85,0.00,,,-99.99,Homeseer,2013-04-15 13:52:00,
2013-04-15 10:12:00,80.2,73.9,25.28,ESE,112,5.8,5.8,77,0.00,,,-99.99,Homeseer,2013-04-15 14:12:00,
2013-04-15 10:22:00,80.1,73.8,25.28,ESE,112,2.7,2.7,77,0.00,,,-99.99,Homeseer,2013-04-15 14:22:00,
2013-04-15 10:32:00,80.6,74.0,25.28,SE,135,0.0,2.5,76,0.00,,,-99.99,Homeseer,2013-04-15 14:32:00,
2013-04-15 10:42:00,81.9,75.9,25.28,SE,135,0.9,0.0,78,0.00,,,-99.99,Homeseer,2013-04-15 14:42:00,
2013-04-15 10:52:00,81.5,74.9,25.28,SSE,157,0.0,0.0,76,0.00,,,-99.99,Homeseer,2013-04-15 14:52:00,
2013-04-15 11:02:00,82.6,76.6,25.28,SSE,157,3.6,3.6,78,0.00,,,-99.99,Homeseer,2013-04-15 15:02:00,
2013-04-15 11:12:00,83.3,77.2,25.28,SSE,157,2.5,2.5,78,0.00,,,-99.99,Homeseer,2013-04-15 15:12:00,
2013-04-15 11:22:00,83.7,77.3,25.28,North,0,3.1,6.5,77,0.00,,,-99.99,Homeseer,2013-04-15 15:22:00,
2013-04-15 11:32:00,84.7,78.3,25.28,SSE,157,2.2,2.2,77,0.00,,,-99.99,Homeseer,2013-04-15 15:32:00,
2013-04-15 11:42:00,85.3,78.5,25.28,WSW,247,2.0,2.0,76,0.00,,,-99.99,Homeseer,2013-04-15 15:42:00,
2013-04-15 11:52:00,85.8,78.4,25.28,North,0,2.5,3.8,74,0.00,,,-99.99,Homeseer,2013-04-15 15:52:00,
2013-04-15 12:12:00,86.5,77.7,25.28,North,0,4.7,5.8,70,0.00,,,-99.99,Homeseer,2013-04-15 16:12:00,
2013-04-15 12:22:00,87.3,78.1,25.28,East,90,4.0,4.0,69,0.00,,,-99.99,Homeseer,2013-04-15 16:22:00,
2013-04-15 12:42:00,88.0,78.1,25.28,SSE,157,4.3,4.3,67,0.00,,,-99.99,Homeseer,2013-04-15 16:42:00,
2013-04-15 12:52:00,87.1,77.6,25.28,WSW,247,3.1,3.1,68,0.00,,,-99.99,Homeseer,2013-04-15 16:52:00,
2013-04-15 13:02:00,87.4,76.8,25.28,North,0,4.3,4.3,65,0.00,,,-99.99,Homeseer,2013-04-15 17:02:00,
2013-04-15 13:12:00,87.4,76.8,25.28,SSE,157,5.8,5.8,65,0.00,,,-99.99,Homeseer,2013-04-15 17:12:00,
2013-04-15 13:22:00,87.6,75.8,25.28,North,0,3.4,5.8,62,0.00,,,-99.99,Homeseer,2013-04-15 17:22:00,
2013-04-15 13:32:00,87.8,75.2,25.28,WSW,247,4.3,4.3,60,0.00,,,-99.99,Homeseer,2013-04-15 17:32:00,
2013-04-15 13:42:00,88.3,75.3,25.28,South,180,4.7,4.7,59,0.00,,,-99.99,Homeseer,2013-04-15 17:42:00,
2013-04-15 13:52:00,88.0,72.5,25.28,SSE,157,5.4,5.4,53,0.00,,,-99.99,Homeseer,2013-04-15 17:52:00,
2013-04-15 14:02:00,88.0,71.6,25.28,North,0,4.5,7.4,51,0.00,,,-99.99,Homeseer,2013-04-15 18:02:00,
2013-04-15 14:12:00,88.7,73.1,25.28,SSE,157,6.3,8.1,53,0.00,,,-99.99,Homeseer,2013-04-15 18:12:00,
2013-04-15 14:22:00,88.7,73.1,25.28,South,180,4.5,4.9,53,0.00,,,-99.99,Homeseer,2013-04-15 18:22:00,
2013-04-15 14:32:00,88.7,73.1,25.28,North,0,4.9,6.5,53,0.00,,,-99.99,Homeseer,2013-04-15 18:32:00,
2013-04-15 14:42:00,88.0,73.8,25.28,South,180,1.1,2.9,56,0.00,,,-99.99,Homeseer,2013-04-15 18:42:00,
2013-04-15 14:52:00,88.7,74.4,25.28,SW,225,4.3,4.3,56,0.00,,,-99.99,Homeseer,2013-04-15 18:52:00,
2013-04-15 15:02:00,88.7,74.4,25.28,South,180,3.8,5.4,56,0.00,,,-99.99,Homeseer,2013-04-15 19:02:00,
2013-04-15 15:12:00,88.9,75.0,25.28,South,180,2.0,2.2,57,0.00,,,-99.99,Homeseer,2013-04-15 19:12:00,
2013-04-15 15:22:00,88.7,74.9,25.28,South,180,3.1,3.1,57,0.00,,,-99.99,Homeseer,2013-04-15 19:22:00,
2013-04-15 15:42:00,88.2,74.4,25.28,SSE,157,4.3,4.3,57,0.00,,,-99.99,Homeseer,2013-04-15 19:42:00,
2013-04-15 15:52:00,87.3,74.0,25.28,North,0,5.6,5.6,58,0.00,,,-99.99,Homeseer,2013-04-15 19:52:00,
2013-04-15 16:02:00,86.4,73.9,25.28,SSE,157,2.7,3.4,60,0.00,,,-99.99,Homeseer,2013-04-15 20:02:00,
2013-04-15 16:12:00,85.6,74.0,25.28,South,180,3.6,3.6,62,0.00,,,-99.99,Homeseer,2013-04-15 20:12:00,
2013-04-15 16:22:00,85.5,73.9,25.28,North,0,5.4,5.4,62,0.00,,,-99.99,Homeseer,2013-04-15 20:22:00,
2013-04-15 16:32:00,85.1,73.9,25.28,WNW,297,2.7,2.7,63,0.00,,,-99.99,Homeseer,2013-04-15 20:32:00,
2013-04-15 16:42:00,84.7,73.9,25.28,South,180,2.9,3.1,64,0.00,,,-99.99,Homeseer,2013-04-15 20:42:00,
2013-04-15 16:52:00,84.0,74.3,25.28,South,180,2.9,2.9,67,0.00,,,-99.99,Homeseer,2013-04-15 20:52:00,
2013-04-15 17:02:00,83.7,74.4,25.28,North,0,2.5,0.0,68,0.00,,,-99.99,Homeseer,2013-04-15 21:02:00,
2013-04-15 17:12:00,83.3,74.3,25.28,South,180,2.9,6.9,69,0.00,,,-99.99,Homeseer,2013-04-15 21:12:00,
2013-04-15 17:22:00,82.9,74.6,25.28,SSE,157,2.2,2.2,71,0.00,,,-99.99,Homeseer,2013-04-15 21:22:00,
2013-04-15 17:32:00,82.8,75.2,25.28,North,0,0.9,0.9,73,0.00,,,-99.99,Homeseer,2013-04-15 21:32:00,
2013-04-15 17:42:00,82.6,75.6,25.28,North,0,1.1,1.1,75,0.00,,,-99.99,Homeseer,2013-04-15 21:42:00,
2013-04-15 17:52:00,82.4,75.1,25.28,WNW,297,0.0,0.9,74,0.00,,,-99.99,Homeseer,2013-04-15 21:52:00,
2013-04-15 18:02:00,82.2,74.9,25.28,SSE,157,1.1,0.0,74,0.00,,,-99.99,Homeseer,2013-04-15 22:02:00,
2013-04-15 18:12:00,82.0,74.7,25.28,North,0,1.6,1.6,74,0.00,,,-99.99,Homeseer,2013-04-15 22:12:00,
2013-04-15 18:22:00,82.0,75.1,25.28,South,180,0.0,0.0,75,0.00,,,-99.99,Homeseer,2013-04-15 22:22:00,
2013-04-15 18:32:00,81.9,75.9,25.28,North,0,0.0,0.0,78,0.00,,,-99.99,Homeseer,2013-04-15 22:32:00,
2013-04-15 18:42:00,81.5,76.7,25.28,South,180,0.0,0.0,82,0.00,,,-99.99,Homeseer,2013-04-15 22:42:00,
2013-04-15 18:52:00,81.1,77.4,25.28,SSE,157,0.0,0.0,86,0.00,,,-99.99,Homeseer,2013-04-15 22:52:00,
2013-04-15 19:02:00,80.2,77.9,25.28,North,0,2.2,3.1,91,0.00,,,-99.99,Homeseer,2013-04-15 23:02:00,
2013-04-15 19:12:00,73.6,71.4,25.28,North,0,7.2,15.4,91,0.00,,,-99.99,Homeseer,2013-04-15 23:12:00,
2013-04-15 19:22:00,72.9,72.0,25.28,East,90,6.9,6.9,96,0.19,,,-99.99,Homeseer,2013-04-15 23:22:00,
2013-04-15 19:32:00,72.7,71.5,25.28,ESE,112,6.3,6.3,95,0.23,,,-99.99,Homeseer,2013-04-15 23:32:00,
2013-04-15 19:42:00,72.9,71.0,25.28,ESE,112,4.5,6.3,92,0.31,,,-99.99,Homeseer,2013-04-15 23:42:00,
2013-04-15 19:52:00,72.7,70.5,25.28,East,90,6.0,6.0,91,0.23,,,-99.99,Homeseer,2013-04-15 23:52:00,
2013-04-15 20:02:00,73.2,70.8,25.28,ESE,112,6.5,6.5,90,0.19,,,-99.99,Homeseer,2013-04-16 00:02:00,
2013-04-15 20:12:00,73.4,70.4,25.28,North,0,2.0,3.1,88,0.23,,,-99.99,Homeseer,2013-04-16 00:12:00,
2013-04-15 20:22:00,73.6,70.9,25.28,North,0,4.0,4.0,89,0.23,,,-99.99,Homeseer,2013-04-16 00:22:00,
2013-04-15 20:32:00,72.9,70.7,25.28,NNE,22,3.1,3.1,91,0.23,,,-99.99,Homeseer,2013-04-16 00:32:00,
2013-04-15 20:42:00,73.0,70.3,25.28,North,0,1.3,3.4,89,0.19,,,-99.99,Homeseer,2013-04-16 00:42:00,
2013-04-15 20:52:00,73.4,69.9,25.28,North,0,2.2,2.2,86,0.19,,,-99.99,Homeseer,2013-04-16 00:52:00,
2013-04-15 21:02:00,73.4,70.4,25.28,SE,135,0.0,0.0,88,0.19,,,-99.99,Homeseer,2013-04-16 01:02:00,
2013-04-15 21:12:00,73.2,71.8,25.28,North,0,0.9,0.0,94,0.19,,,-99.99,Homeseer,2013-04-16 01:12:00,
2013-04-15 21:22:00,73.6,72.2,25.28,North,0,1.6,2.0,94,0.19,,,-99.99,Homeseer,2013-04-16 01:22:00,
2013-04-15 21:32:00,73.4,72.0,25.28,WNW,297,0.0,0.0,94,0.19,,,-99.99,Homeseer,2013-04-16 01:32:00,
2013-04-15 21:42:00,73.4,72.2,25.28,North,0,0.9,0.0,95,0.19,,,-99.99,Homeseer,2013-04-16 01:42:00,
2013-04-15 21:52:00,73.4,72.2,25.28,North,0,0.0,1.6,95,0.19,,,-99.99,Homeseer,2013-04-16 01:52:00,
2013-04-15 22:02:00,73.6,72.4,25.28,North,0,1.1,0.0,95,0.19,,,-99.99,Homeseer,2013-04-16 02:02:00,
2013-04-15 22:12:00,73.6,72.2,25.28,South,180,0.0,0.0,94,0.19,,,-99.99,Homeseer,2013-04-16 02:12:00,
2013-04-15 22:22:00,73.8,72.4,25.28,North,0,0.0,0.0,94,0.19,,,-99.99,Homeseer,2013-04-16 02:22:00,
2013-04-15 22:32:00,73.8,72.1,25.28,South,180,0.0,0.0,93,0.19,,,-99.99,Homeseer,2013-04-16 02:32:00,
2013-04-15 22:42:00,73.6,71.9,25.28,ESE,112,0.0,0.0,93,0.19,,,-99.99,Homeseer,2013-04-16 02:42:00,
2013-04-15 22:52:00,73.8,72.1,25.28,SE,135,0.0,0.0,93,0.00,,,-99.99,Homeseer,2013-04-16 02:52:00,
2013-04-15 23:02:00,73.8,71.9,25.28,WNW,297,0.0,0.0,92,0.00,,,-99.99,Homeseer,2013-04-16 03:02:00,
2013-04-15 23:12:00,73.6,71.7,25.28,WNW,297,2.5,3.8,92,0.00,,,-99.99,Homeseer,2013-04-16 03:12:00,
2013-04-15 23:22:00,73.6,71.9,25.28,North,0,0.9,0.0,93,0.00,,,-99.99,Homeseer,2013-04-16 03:22:00,
2013-04-15 23:32:00,73.4,72.0,25.28,ESE,112,1.1,1.6,94,0.00,,,-99.99,Homeseer,2013-04-16 03:32:00,
2013-04-15 23:42:00,73.4,72.0,25.28,ENE,67,0.0,0.0,94,0.00,,,-99.99,Homeseer,2013-04-16 03:42:00,
2013-04-15 23:52:00,73.4,72.0,25.28,East,90,0.0,0.0,94,0.00,,,-99.99,Homeseer,2013-04-16 03:52:00,